W1HVD Weather Reports


Display with metric or nautical units.
time (UTC)temp
F
wind
direction
speed
MPH
gust
MPH
rain 1hr
in
rain 24hr
in
rain mn
in
humidity
%
barometer
mb
20260505061322 50 185 0.0 0.0 0.00 0.00 0.00 89 1011.5
20260505060819 50 209 1.0 1.0 0.00 0.00 0.00 89 1011.4
20260505060316 50 187 0.0 1.0 0.00 0.00 0.00 89 1011.5
20260505055811 50 184 1.0 1.0 0.00 0.00 0.00 89 1011.7
20260505055308 50 229 2.0 2.0 0.00 0.00 0.00 89 1011.7
20260505054805 50 160 0.0 0.0 0.00 0.00 0.00 88 1011.6
20260505054302 51 194 1.0 1.0 0.00 0.00 0.00 88 1011.5
20260505053801 51 194 0.0 0.0 0.00 0.00 0.00 88 1011.6
20260505053257 51 187 0.0 0.0 0.00 0.00 0.00 87 1011.7
20260505052754 51 207 1.0 1.0 0.00 0.00 0.00 87 1011.6
20260505052251 51 176 0.0 1.0 0.00 0.00 0.00 87 1011.5
20260505051748 51 193 0.0 0.0 0.00 0.00 0.00 86 1011.7
20260505051246 51 141 2.0 2.0 0.00 0.00 0.00 86 1011.7
20260505050744 51 241 1.0 1.0 0.00 0.00 0.00 86 1011.5
20260505050243 51 149 1.0 2.0 0.00 0.00 0.00 86 1011.8
20260505041712 51 198 0.0 1.0 0.00 0.00 0.00 83 1011.7
20260505041209 52 182 0.0 0.0 0.00 0.00 0.00 82 1011.8
20260505040706 52 194 2.0 2.0 0.00 0.00 0.00 82 1011.9
20260505040203 51 243 1.0 1.0 0.00 0.00 0.00 82 1011.8
20260505035700 52 205 0.0 0.0 0.00 0.00 0.00 82 1011.7
20260505035156 52 189 1.0 1.0 0.00 0.00 0.00 82 1011.5
20260505034652 52 209 0.0 1.0 0.00 0.00 0.00 82 1011.7
20260505034150 51 214 1.0 1.0 0.00 0.00 0.00 82 1011.8
20260505033646 51 157 0.0 0.0 0.00 0.00 0.00 82 1011.9
20260505033145 51 172 1.0 1.0 0.00 0.00 0.00 82 1011.8
20260505032642 52 179 3.0 3.0 0.00 0.00 0.00 82 1011.8
20260505032138 52 169 0.0 0.0 0.00 0.00 0.00 82 1012.0
20260505031636 52 111 1.0 2.0 0.00 0.00 0.00 81 1011.7
20260505031132 52 207 1.0 2.0 0.00 0.00 0.00 82 1012.0
20260505030629 52 157 0.0 0.0 0.00 0.00 0.00 81 1012.0
20260505030125 52 198 2.0 3.0 0.00 0.00 0.00 81 1012.1
20260505025620 52 139 1.0 1.0 0.00 0.00 0.00 81 1012.1
20260505025120 52 176 2.0 2.0 0.00 0.00 0.00 80 1012.1
20260505024617 52 138 2.0 3.0 0.00 0.00 0.00 80 1012.2
20260505024114 52 169 1.0 1.0 0.00 0.00 0.00 80 1011.9
20260505023611 52 56 2.0 3.0 0.00 0.00 0.00 80 1011.9
20260505023108 52 191 2.0 3.0 0.00 0.00 0.00 80 1011.9
20260505022606 52 233 1.0 2.0 0.00 0.00 0.00 79 1012.1
20260505022102 52 204 1.0 1.0 0.00 0.00 0.00 79 1012.1
20260505021559 52 224 1.0 1.0 0.00 0.00 0.00 79 1012.2
20260505021056 52 213 4.0 6.0 0.00 0.00 0.00 79 1012.1
20260505020556 53 190 2.0 2.0 0.00 0.00 0.00 78 1012.1
20260505020053 53 151 4.0 4.0 0.00 0.00 0.00 78 1012.1
20260505015550 53 216 1.0 1.0 0.00 0.00 0.00 78 1012.1
20260505015047 53 187 0.0 0.0 0.00 0.00 0.00 77 1012.1
20260505014543 53 223 2.0 2.0 0.00 0.00 0.00 77 1012.1
20260505014041 53 190 2.0 3.0 0.00 0.00 0.00 76 1012.1
20260505013538 53 150 1.0 3.0 0.00 0.00 0.00 76 1011.9
20260505013035 54 196 4.0 6.0 0.00 0.00 0.00 75 1011.7
20260505012533 54 218 2.0 6.0 0.00 0.00 0.00 75 1011.6
20260505012030 54 185 0.0 1.0 0.00 0.00 0.00 76 1011.6
20260505011525 54 219 1.0 2.0 0.00 0.00 0.00 75 1011.4
20260505011023 54 181 3.0 4.0 0.00 0.00 0.00 74 1011.4
20260505010518 54 74 4.0 6.0 0.00 0.00 0.00 74 1011.3
20260505010015 54 273 2.0 3.0 0.00 0.00 0.00 74 1011.1
20260505005511 54 188 5.0 9.0 0.00 0.00 0.00 73 1011.2
20260505005009 55 155 2.0 3.0 0.00 0.00 0.00 73 1011.1
20260505004506 55 200 2.0 2.0 0.00 0.00 0.00 72 1011.1
20260505004002 55 233 2.0 3.0 0.00 0.00 0.00 71 1010.9
20260505003459 55 203 2.0 3.0 0.00 0.00 0.00 71 1010.7
20260505002956 55 197 0.0 1.0 0.00 0.00 0.00 70 1010.7
20260505002452 55 201 1.0 1.0 0.00 0.00 0.00 70 1010.6
20260505001951 55 216 2.0 3.0 0.00 0.00 0.00 69 1010.6
20260505001448 55 152 2.0 3.0 0.00 0.00 0.00 68 1010.6
20260505000944 55 222 4.0 6.0 0.00 0.00 0.00 68 1010.4
20260505000443 55 210 2.0 2.0 0.00 0.00 0.00 67 1010.3
20260504235939 56 179 3.0 4.0 0.00 0.00 0.00 66 1010.1
20260504235437 56 212 1.0 2.0 0.00 0.00 0.00 65 1010.1
20260504234932 57 229 2.0 2.0 0.00 0.00 0.00 63 1010.1
20260504234430 57 229 4.0 4.0 0.00 0.00 0.00 62 1009.9
20260504233926 57 212 2.0 3.0 0.00 0.00 0.00 61 1009.8
20260504233422 57 183 6.0 9.0 0.00 0.00 0.00 60 1010.0
20260504232920 58 214 2.0 4.0 0.00 0.00 0.00 60 1009.9
20260504232417 58 153 1.0 2.0 0.00 0.00 0.00 58 1009.7
20260504231914 58 196 1.0 1.0 0.00 0.00 0.00 57 1009.7
20260504231409 59 178 5.0 6.0 0.00 0.00 0.00 55 1009.5
20260504230906 59 179 5.0 7.0 0.00 0.00 0.00 54 1009.7
20260504230403 59 226 2.0 2.0 0.00 0.00 0.00 53 1009.7
20260504225902 60 226 2.0 3.0 0.00 0.00 0.00 53 1009.4
20260504225358 60 125 4.0 6.0 0.00 0.00 0.00 52 1009.5
20260504224856 61 179 3.0 4.0 0.00 0.00 0.00 50 1009.3
20260504224352 61 160 4.0 4.0 0.00 0.00 0.00 49 1009.4
20260504223849 62 257 2.0 2.0 0.00 0.00 0.00 48 1009.3
20260504223344 62 162 4.0 6.0 0.00 0.00 0.00 48 1009.1
20260504222841 62 32 4.0 4.0 0.00 0.00 0.00 48 1009.1
20260504222338 63 128 3.0 3.0 0.00 0.00 0.00 47 1009.0
20260504221837 63 153 2.0 3.0 0.00 0.00 0.00 47 1009.0
20260504221333 63 247 8.0 11.0 0.00 0.00 0.00 46 1008.8
20260504220830 63 259 3.0 3.0 0.00 0.00 0.00 46 1008.8
20260504220327 64 207 4.0 8.0 0.00 0.00 0.00 46 1009.0
20260504215824 64 214 3.0 4.0 0.00 0.00 0.00 46 1008.9
20260504215320 64 201 5.0 10.0 0.00 0.00 0.00 45 1008.9
20260504214816 65 157 6.0 9.0 0.00 0.00 0.00 45 1009.0
20260504214314 66 159 4.0 6.0 0.00 0.00 0.00 44 1009.0
20260504213810 66 232 4.0 6.0 0.00 0.00 0.00 44 1008.8
20260504213306 66 192 4.0 6.0 0.00 0.00 0.00 43 1008.8
20260504212804 66 191 4.0 6.0 0.00 0.00 0.00 44 1008.7
20260504212300 66 137 3.0 4.0 0.00 0.00 0.00 44 1008.9
20260504211758 66 186 7.0 13.0 0.00 0.00 0.00 43 1008.8
20260504211253 66 225 2.0 2.0 0.00 0.00 0.00 44 1008.7
20260504210751 66 255 2.0 3.0 0.00 0.00 0.00 44 1008.6
20260504210248 66 253 8.0 13.0 0.00 0.00 0.00 43 1008.4
20260504205745 66 249 2.0 3.0 0.00 0.00 0.00 43 1008.6
20260504205243 66 239 5.0 7.0 0.00 0.00 0.00 42 1008.6
20260504204741 66 185 3.0 6.0 0.00 0.00 0.00 42 1008.7
20260504204239 67 168 8.0 14.0 0.00 0.00 0.00 41 1008.6
20260504203738 68 239 2.0 3.0 0.00 0.00 0.00 40 1008.4
20260504203235 68 241 4.0 4.0 0.00 0.00 0.00 40 1008.4
20260504202735 67 358 3.0 4.0 0.00 0.00 0.00 40 1008.4
20260504202232 67 221 2.0 2.0 0.00 0.00 0.00 40 1008.3
20260504201729 67 237 7.0 13.0 0.00 0.00 0.00 38 1008.4
20260504201226 68 282 6.0 7.0 0.00 0.00 0.00 38 1008.4
20260504200724 67 188 2.0 4.0 0.00 0.00 0.00 39 1008.4
20260504200220 67 190 8.0 15.0 0.00 0.00 0.00 40 1008.4
20260504195717 67 191 5.0 9.0 0.00 0.00 0.00 39 1008.6
20260504195212 67 222 9.0 15.0 0.00 0.00 0.00 39 1008.4
20260504194710 68 176 8.0 10.0 0.00 0.00 0.00 38 1008.3
20260504194206 68 211 8.0 11.0 0.00 0.00 0.00 37 1008.6
20260504193702 68 209 4.0 6.0 0.00 0.00 0.00 37 1008.4
20260504193200 69 252 4.0 8.0 0.00 0.00 0.00 37 1008.1
20260504192658 69 222 4.0 6.0 0.00 0.00 0.00 36 1008.3
20260504192156 68 136 4.0 8.0 0.00 0.00 0.00 37 1008.2
20260504191654 69 186 7.0 9.0 0.00 0.00 0.00 37 1008.4
20260504191150 69 166 4.0 6.0 0.00 0.00 0.00 37 1008.2
20260504190646 69 43 2.0 3.0 0.00 0.00 0.00 36 1008.6
20260504190143 69 214 6.0 8.0 0.00 0.00 0.00 37 1008.4
20260504185639 69 143 4.0 8.0 0.00 0.00 0.00 37 1008.6
20260504185136 69 214 6.0 8.0 0.00 0.00 0.00 35 1008.6
20260504184632 69 189 3.0 6.0 0.00 0.00 0.00 37 1008.7
20260504184127 69 204 2.0 3.0 0.00 0.00 0.00 36 1008.6
20260504183624 70 185 3.0 6.0 0.00 0.00 0.00 36 1008.6
20260504183122 70 236 8.0 9.0 0.00 0.00 0.00 35 1008.4
20260504182619 70 236 10.0 14.0 0.00 0.00 0.00 29 1008.6
20260504182117 70 244 4.0 8.0 0.00 0.00 0.00 30 1008.6
20260504181614 71 218 3.0 4.0 0.00 0.00 0.00 33 1008.6
20260504181111 70 187 6.0 9.0 0.00 0.00 0.00 30 1008.8
20260504180610 69 356 3.0 3.0 0.00 0.00 0.00 33 1008.7
20260504180109 70 211 9.0 11.0 0.00 0.00 0.00 30 1008.9
20260504175606 70 205 6.0 10.0 0.00 0.00 0.00 32 1008.7
20260504175102 69 174 0.0 1.0 0.00 0.00 0.00 34 1008.8
20260504174601 69 269 6.0 8.0 0.00 0.00 0.00 30 1008.6
20260504174057 69 252 3.0 4.0 0.00 0.00 0.00 29 1008.6
20260504173554 69 232 2.0 4.0 0.00 0.00 0.00 32 1008.6
20260504173051 69 206 1.0 2.0 0.00 0.00 0.00 32 1008.7
20260504172547 69 269 5.0 6.0 0.00 0.00 0.00 32 1008.9
20260504172044 69 237 2.0 3.0 0.00 0.00 0.00 32 1008.7
20260504171541 69 233 1.0 1.0 0.00 0.00 0.00 31 1008.8
20260504171038 68 261 6.0 9.0 0.00 0.00 0.00 31 1009.0
20260504170533 68 244 8.0 9.0 0.00 0.00 0.00 30 1008.8
20260504150918 67 233 4.0 7.0 0.00 0.00 0.00 34 1010.0
20260504150414 67 261 2.0 3.0 0.00 0.00 0.00 35 1009.9
20260504140841 65 185 5.0 7.0 0.00 0.00 0.00 35 1010.9
20260504140336 65 180 0.0 1.0 0.00 0.00 0.00 37 1010.9
20260504130805 60 228 5.0 7.0 0.00 0.00 0.00 42 1011.4
20260504130301 59 215 4.0 4.0 0.00 0.00 0.00 44 1011.4
20260504120225 52 242 2.0 3.0 0.00 0.00 0.00 58 1011.9
20260504110647 46 203 0.0 0.0 0.00 0.00 0.00 66 1011.7
20260504110143 45 165 0.0 1.0 0.00 0.00 0.00 68 1011.8
20260504100603 41 205 0.0 0.0 0.00 0.00 0.00 72 1011.6
20260504081957 42 196 0.0 0.0 0.00 0.00 0.00 66 1011.3
20260504081455 42 193 0.0 0.0 0.00 0.00 0.00 66 1011.3
20260504080949 42 187 0.0 0.0 0.00 0.00 0.00 64 1011.2
20260504080446 42 187 0.0 0.0 0.00 0.00 0.00 65 1011.3